GEC8460 EDDF-VHHH

Flight info

Callsign GEC8460
Flight time N/A
Altitude 31000
Route SULUS7S SULUS Z650 VEMUT/N0470F390 DCT PEPIK DCT NORAH DCT BUDOP DCT LUGEB DCT UDROS UM859 RUVOM/N0485F410 UM859 KARDE UL851 TBN UM11 REBLO M11 LUSAL N199 RASAM L88 METKA B476 DARVA/K0883F410 T898 OGOLI N193 SR L163 TISIB L141 KAMUD/K0880S1250 W186 SADAN Y1 OMBON W245 OVRAL B330 KWE W181 DUDIT A599 POU R473 SIERA
Aircraft B77L/H-SDE2E3FGHIJ1J3J4J5M1P2RWXYZ/LB1D1

Departure

Time N/A
Airport Frankfurt Main Airport (EDDF)

Arrival

Time 2026-05-06 20:46
Airport Hong Kong International Airport (VHHH)
Time Latitude Longitude Altitude Speed Heading
2026-05-06 20:22 22.89611 113.23541 38434 ft 492 kts 168°
2026-05-06 20:22 22.86314 113.24594 37543 ft 494 kts 167°
2026-05-06 20:22 22.83032 113.25670 36705 ft 494 kts 167°
2026-05-06 20:22 22.79749 113.26780 35986 ft 493 kts 166°
2026-05-06 20:23 22.76497 113.27904 35397 ft 489 kts 166°
2026-05-06 20:23 22.73295 113.29018 34845 ft 484 kts 166°
2026-05-06 20:23 22.70090 113.30135 34130 ft 483 kts 166°
2026-05-06 20:23 22.66899 113.31243 33464 ft 480 kts 166°
2026-05-06 20:24 22.63731 113.32340 32839 ft 476 kts 166°
2026-05-06 20:24 22.60594 113.33426 32229 ft 471 kts 166°
2026-05-06 20:24 22.57486 113.34502 31624 ft 467 kts 166°
2026-05-06 20:24 22.54408 113.35569 31038 ft 462 kts 166°
2026-05-06 20:25 22.51359 113.36625 30457 ft 458 kts 166°
2026-05-06 20:25 22.48333 113.37673 29846 ft 455 kts 165°
2026-05-06 20:25 22.45340 113.38709 29164 ft 444 kts 166°
2026-05-06 20:25 22.42434 113.39717 28575 ft 436 kts 166°
2026-05-06 20:26 22.39554 113.40713 27997 ft 432 kts 166°
2026-05-06 20:26 22.36717 113.41692 27447 ft 429 kts 166°
2026-05-06 20:26 22.33891 113.42667 26879 ft 425 kts 166°
2026-05-06 20:26 22.31096 113.43631 26334 ft 422 kts 166°
2026-05-06 20:27 22.28310 113.44593 25790 ft 419 kts 166°
2026-05-06 20:27 22.26474 113.45226 25422 ft 417 kts 166°
2026-05-06 20:27 22.22786 113.46497 24692 ft 415 kts 166°
2026-05-06 20:27 22.20046 113.47460 24155 ft 413 kts 165°
2026-05-06 20:28 22.18244 113.48112 23796 ft 412 kts 165°
2026-05-06 20:28 22.15535 113.49102 23206 ft 410 kts 165°
2026-05-06 20:28 22.11986 113.50402 22441 ft 406 kts 164°
2026-05-06 20:28 22.09323 113.51374 21899 ft 402 kts 164°
2026-05-06 20:29 22.06688 113.52332 21371 ft 398 kts 164°
2026-05-06 20:29 22.04925 113.52972 21015 ft 395 kts 164°
2026-05-06 20:29 22.02333 113.53911 20494 ft 391 kts 164°
2026-05-06 20:29 21.99771 113.54839 19967 ft 387 kts 164°
2026-05-06 20:30 21.97239 113.55800 19450 ft 385 kts 161°
2026-05-06 20:30 21.92351 113.58053 18389 ft 379 kts 158°
2026-05-06 20:30 21.89950 113.59200 17804 ft 377 kts 159°
2026-05-06 20:31 21.87552 113.60333 17141 ft 375 kts 159°
2026-05-06 20:31 21.85170 113.61444 16605 ft 370 kts 159°
2026-05-06 20:31 21.82824 113.62530 16111 ft 364 kts 159°
2026-05-06 20:31 21.80513 113.63596 15648 ft 358 kts 159°
2026-05-06 20:32 21.77518 113.64974 15056 ft 350 kts 159°
2026-05-06 20:32 21.76010 113.65668 14758 ft 347 kts 159°
2026-05-06 20:32 21.73815 113.66683 14308 ft 338 kts 158°
2026-05-06 20:32 21.71899 113.68089 13857 ft 336 kts 136°
2026-05-06 20:33 21.70651 113.70204 13378 ft 338 kts 112°
2026-05-06 20:33 21.70220 113.72640 12901 ft 338 kts 91°
2026-05-06 20:33 21.70641 113.75141 12428 ft 336 kts 70°
2026-05-06 20:33 21.71757 113.77273 11975 ft 331 kts 49°
2026-05-06 20:34 21.73427 113.78986 11540 ft 325 kts 40°
2026-05-06 20:34 21.75077 113.80543 11113 ft 322 kts 40°
2026-05-06 20:34 21.76756 113.82138 10753 ft 319 kts 41°
2026-05-06 20:34 21.78407 113.83732 10501 ft 318 kts 41°
2026-05-06 20:35 21.80024 113.85307 10117 ft 306 kts 41°
2026-05-06 20:35 21.81547 113.86798 9800 ft 287 kts 41°
2026-05-06 20:35 21.83014 113.88230 9499 ft 287 kts 40°
2026-05-06 20:35 21.84728 113.89344 9172 ft 293 kts 15°
2026-05-06 20:36 21.86732 113.89427 8871 ft 288 kts 345°
2026-05-06 20:36 21.88546 113.88655 8579 ft 277 kts 332°
2026-05-06 20:36 21.90303 113.87773 8295 ft 280 kts 332°
2026-05-06 20:36 21.92077 113.86881 8008 ft 282 kts 333°
2026-05-06 20:37 21.93835 113.85999 7708 ft 276 kts 333°
2026-05-06 20:37 21.95574 113.85127 7421 ft 277 kts 333°
2026-05-06 20:37 21.97321 113.84251 7127 ft 275 kts 333°
2026-05-06 20:37 21.99040 113.83393 6837 ft 272 kts 333°
2026-05-06 20:38 22.00761 113.82534 6554 ft 274 kts 333°
2026-05-06 20:38 22.02482 113.81676 6268 ft 270 kts 333°
2026-05-06 20:38 22.04191 113.80823 5972 ft 272 kts 333°
2026-05-06 20:38 22.05913 113.79965 5683 ft 273 kts 333°
2026-05-06 20:39 22.07616 113.79116 5387 ft 267 kts 333°
2026-05-06 20:39 22.09276 113.78290 5105 ft 260 kts 334°
2026-05-06 20:39 22.10897 113.77482 4830 ft 253 kts 334°
2026-05-06 20:39 22.12478 113.76694 4557 ft 248 kts 334°
2026-05-06 20:40 22.14024 113.75921 4287 ft 242 kts 334°
2026-05-06 20:40 22.15538 113.75166 4034 ft 237 kts 334°
2026-05-06 20:40 22.17018 113.74428 3790 ft 232 kts 334°
2026-05-06 20:40 22.18454 113.73712 3548 ft 226 kts 335°
2026-05-06 20:41 22.19926 113.73350 3321 ft 214 kts
2026-05-06 20:41 22.21270 113.73871 3111 ft 201 kts 30°
2026-05-06 20:41 22.22496 113.74575 2912 ft 199 kts 30°
2026-05-06 20:41 22.23711 113.75264 2699 ft 198 kts 30°
2026-05-06 20:42 22.24892 113.75997 2466 ft 191 kts 45°
2026-05-06 20:42 22.25518 113.77160 2291 ft 176 kts 77°
2026-05-06 20:42 22.25899 113.78454 2120 ft 185 kts 73°
2026-05-06 20:42 22.26337 113.79770 1911 ft 186 kts 73°
2026-05-06 20:43 22.26765 113.81065 1695 ft 182 kts 73°
2026-05-06 20:43 22.27171 113.82291 1484 ft 169 kts 72°
2026-05-06 20:43 22.27556 113.83459 1284 ft 159 kts 73°
2026-05-06 20:43 22.27914 113.84554 1070 ft 153 kts 72°
2026-05-06 20:44 22.28247 113.85574 881 ft 137 kts 71°
2026-05-06 20:44 22.28552 113.86522 711 ft 133 kts 72°
2026-05-06 20:44 22.28856 113.87463 537 ft 133 kts 71°
2026-05-06 20:44 22.29163 113.88377 409 ft 129 kts 72°
2026-05-06 20:45 22.29454 113.89285 229 ft 127 kts 72°
2026-05-06 20:45 22.29745 113.90183 56 ft 129 kts 72°
2026-05-06 20:45 22.30018 113.91042 36 ft 107 kts 70°
2026-05-06 20:45 22.30213 113.91649 37 ft 67 kts 71°
2026-05-06 20:46 22.30336 113.92023 37 ft 35 kts 71°
2026-05-06 20:46 22.30371 113.92235 38 ft 27 kts 97°
2026-05-06 20:46 22.30351 113.92356 38 ft 9 kts 103°
2026-05-06 20:46 22.30300 113.92403 37 ft 11 kts 177°
2026-05-06 20:47 22.30256 113.92342 37 ft 12 kts 251°
2026-05-06 20:47 22.30223 113.92240 37 ft 16 kts 251°
2026-05-06 20:47 22.30181 113.92111 37 ft 20 kts 250°
2026-05-06 20:47 22.30119 113.92037 37 ft 13 kts 180°
2026-05-06 20:48 22.30027 113.92068 37 ft 15 kts 161°
2026-05-06 20:48 22.29972 113.92124 37 ft 11 kts 92°
2026-05-06 20:48 22.29997 113.92214 37 ft 13 kts 71°
2026-05-06 20:48 22.30013 113.92293 37 ft 8 kts 107°
2026-05-06 20:49 22.29974 113.92328 37 ft 6 kts 153°
2026-05-06 20:49 22.29948 113.92339 35 ft 4 kts 163°
2026-05-06 20:49 22.29942 113.92341 37 ft 0 kts 162°